Mojave, CA

8:26 AM PDT on October 17, 2017 (GMT -0700)
Mojave

Weather History for KMHV - February, 2013

Change the Weather History Date:

Sunday, February 10, 2013

  Actual Average Record
Temperature  
Mean Temperature 40 °F -  
Max Temperature 51 °F 58 °F 75 °F (2006)
Min Temperature 28 °F 35 °F 24 °F (1965)
Degree Days  
Heating Degree Days 26    
Moisture  
Dew Point 17 °F    
Average Humidity 43    
Maximum Humidity 59    
Minimum Humidity 22    
Precipitation  
Precipitation 0.00 in - - ()
Sea Level Pressure  
Sea Level Pressure 30.00 in    
Wind  
Wind Speed 5 mph (NNW)    
Max Wind Speed 23 mph    
Max Gust Speed 26 mph    
Visibility 10 miles    
Events      
Averages and records for this station are not official NWS values.
T = Trace of Precipitation, MM = Missing Value Source: NWS Daily Summary

Daily Weather History Graph

Daily Weather History Graph

Search for Another Location

Airport or City:

Trip Planner

Search our weather history database for the weather conditions in past years. The results will help you decide how hot, cold, wet, or windy it might be!

Date:

Astronomy

Feb. 10, 2013 Rise Set
Actual Time 6:43 AM PST 5:30 PM PST
Civil Twilight 6:17 AM PST 5:56 PM PST
Nautical Twilight 5:47 AM PST 6:26 PM PST
Astronomical Twilight 5:17 AM PST 6:56 PM PST
Moon 6:39 AM PST (2/10) 6:22 PM PST (2/10)
Length of Visible Light 11h 39m
Length of Day
10h 47m
New Moon, 0% of the Moon is Illuminated
Feb 10
New Moon
Feb 17
First Quarter
Feb 25
Full
Mar 4
Last Quarter
Mar 11
New

Hourly Weather History & Observations

Time (PST) Temp. Windchill Dew Point Humidity Pressure Visibility Wind Dir Wind Speed Gust Speed Precip Events Conditions
12:15 AM 35.6 °F 32.8 °F 14.0 °F 41% 30.03 in 10.0 mi NNE 3.5 mph - N/A   Clear
12:35 AM 37.4 °F 34.9 °F 14.0 °F 38% 30.03 in 10.0 mi North 3.5 mph - N/A   Clear
12:55 AM 33.8 °F 28.6 °F 14.0 °F 44% 30.02 in 10.0 mi North 5.8 mph - N/A   Clear
1:15 AM 32.0 °F 28.7 °F 14.0 °F 48% 30.02 in 10.0 mi WNW 3.5 mph - N/A   Clear
1:35 AM 32.0 °F 28.7 °F 14.0 °F 48% 30.02 in 10.0 mi SW 3.5 mph - N/A   Clear
1:55 AM 33.8 °F 30.8 °F 15.8 °F 48% 30.01 in 10.0 mi WNW 3.5 mph - N/A   Clear
2:15 AM 32.0 °F - 14.0 °F 48% 30.01 in 10.0 mi Calm Calm - N/A   Clear
2:35 AM 32.0 °F 26.4 °F 14.0 °F 48% 30.01 in 10.0 mi NW 5.8 mph - N/A   Clear
2:55 AM 32.0 °F 28.7 °F 14.0 °F 48% 30.00 in 10.0 mi ENE 3.5 mph - N/A   Clear
3:15 AM 30.2 °F - 14.0 °F 51% 30.00 in 10.0 mi Calm Calm - N/A   Clear
3:35 AM 32.0 °F - 14.0 °F 48% 30.00 in 10.0 mi Calm Calm - N/A   Clear
3:55 AM 30.2 °F 25.4 °F 14.0 °F 51% 30.00 in 10.0 mi WSW 4.6 mph - N/A   Clear
4:15 AM 28.4 °F 24.6 °F 14.0 °F 55% 30.00 in 10.0 mi West 3.5 mph - N/A   Clear
4:35 AM 28.4 °F 22.2 °F 14.0 °F 55% 30.00 in 10.0 mi West 5.8 mph - N/A   Clear
4:55 AM 33.8 °F 27.7 °F 15.8 °F 48% 29.99 in 10.0 mi West 6.9 mph - N/A   Clear
5:15 AM 32.0 °F 28.7 °F 14.0 °F 48% 30.00 in 10.0 mi NW 3.5 mph - N/A   Clear
5:35 AM 32.0 °F - 14.0 °F 48% 30.00 in 10.0 mi Calm Calm - N/A   Clear
5:55 AM 32.0 °F 25.6 °F 14.0 °F 48% 30.01 in 10.0 mi NNW 6.9 mph - N/A   Clear
6:15 AM 28.4 °F 24.6 °F 15.8 °F 59% 30.01 in 10.0 mi North 3.5 mph - N/A   Clear
6:35 AM 28.4 °F - 15.8 °F 59% 30.01 in 10.0 mi Calm Calm - N/A   Clear
6:55 AM 28.4 °F - 14.0 °F 55% 30.01 in 10.0 mi Calm Calm - N/A   Clear
7:15 AM 30.2 °F - 14.0 °F 51% 30.01 in 10.0 mi Calm Calm - N/A   Clear
7:35 AM 30.2 °F 25.4 °F 15.8 °F 55% 30.01 in 10.0 mi WSW 4.6 mph - N/A   Clear
7:55 AM 32.0 °F - 15.8 °F 51% 30.02 in 10.0 mi Calm Calm - N/A   Clear
8:15 AM 35.6 °F - 15.8 °F 44% 30.02 in 10.0 mi Calm Calm - N/A   Clear
8:35 AM 35.6 °F - 17.6 °F 48% 30.03 in 10.0 mi Calm Calm - N/A   Clear
8:55 AM 37.4 °F - 17.6 °F 45% 30.03 in 10.0 mi Calm Calm - N/A   Clear
9:15 AM 37.4 °F 34.9 °F 17.6 °F 45% 30.04 in 10.0 mi East 3.5 mph - N/A   Clear
9:35 AM 39.2 °F 37.0 °F 17.6 °F 42% 30.04 in 10.0 mi SE 3.5 mph - N/A   Clear
9:55 AM 39.2 °F 37.0 °F 17.6 °F 42% 30.04 in 10.0 mi East 3.5 mph - N/A   Clear
10:15 AM 41.0 °F 38.0 °F 17.6 °F 39% 30.04 in 10.0 mi East 4.6 mph - N/A   Clear
10:35 AM 42.8 °F 40.1 °F 15.8 °F 34% 30.04 in 10.0 mi East 4.6 mph - N/A   Clear
10:55 AM 44.6 °F 42.2 °F 15.8 °F 31% 30.04 in 10.0 mi East 4.6 mph - N/A   Clear
11:15 AM 44.6 °F 43.1 °F 17.6 °F 34% 30.04 in 10.0 mi NE 3.5 mph - N/A   Clear
11:35 AM 46.4 °F - 15.8 °F 29% 30.03 in 10.0 mi Calm Calm - N/A   Clear
11:55 AM 46.4 °F 42.9 °F 15.8 °F 29% 30.01 in 10.0 mi NE 6.9 mph - N/A   Clear
12:15 PM 46.4 °F 42.4 °F 14.0 °F 27% 30.01 in 10.0 mi East 8.1 mph - N/A   Clear
12:35 PM 48.2 °F - 14.0 °F 25% 30.00 in 10.0 mi East 10.4 mph - N/A   Clear
12:55 PM 48.2 °F - 14.0 °F 25% 29.99 in 10.0 mi Calm Calm - N/A   Clear
1:15 PM 48.2 °F - 14.0 °F 25% 29.98 in 10.0 mi South 4.6 mph - N/A   Clear
1:35 PM 50.0 °F - 14.0 °F 24% 29.97 in 10.0 mi Calm Calm - N/A   Clear
1:55 PM 50.0 °F - 14.0 °F 24% 29.96 in 10.0 mi WSW 4.6 mph - N/A   Clear
2:15 PM 50.0 °F - 14.0 °F 24% 29.96 in 10.0 mi ESE 5.8 mph - N/A   Clear
2:35 PM 50.0 °F - 14.0 °F 24% 29.95 in 10.0 mi NE 3.5 mph - N/A   Clear
2:55 PM 51.8 °F - 14.0 °F 22% 29.95 in 10.0 mi North 4.6 mph - N/A   Clear
3:15 PM 50.0 °F - 14.0 °F 24% 29.94 in 10.0 mi Calm Calm - N/A   Clear
3:35 PM 50.0 °F - 14.0 °F 24% 29.94 in 10.0 mi SE 6.9 mph - N/A   Clear
3:55 PM 50.0 °F - 15.8 °F 26% 29.94 in 10.0 mi West 6.9 mph - N/A   Partly Cloudy
4:15 PM 50.0 °F - 15.8 °F 26% 29.94 in 10.0 mi SW 8.1 mph - N/A   Clear
4:35 PM 50.0 °F - 23.0 °F 35% 29.94 in 10.0 mi WNW 15.0 mph - N/A   Clear
4:55 PM 48.2 °F - 23.0 °F 37% 29.95 in 10.0 mi WNW 17.3 mph - N/A   Clear
5:15 PM 46.4 °F 39.5 °F 23.0 °F 40% 29.95 in 10.0 mi WNW 17.3 mph 21.9 mph N/A   Clear
5:35 PM 44.6 °F 38.1 °F 23.0 °F 43% 29.95 in 10.0 mi WNW 13.8 mph 21.9 mph N/A   Clear
5:55 PM 44.6 °F 37.2 °F 23.0 °F 43% 29.95 in 10.0 mi WNW 17.3 mph 23.0 mph N/A   Clear
6:15 PM 42.8 °F 34.3 °F 23.0 °F 46% 29.95 in 10.0 mi West 19.6 mph 24.2 mph N/A   Clear
6:35 PM 41.0 °F 31.1 °F 23.0 °F 49% 29.94 in 10.0 mi West 23.0 mph - N/A   Clear
6:55 PM 41.0 °F 31.1 °F 23.0 °F 49% 29.94 in 10.0 mi West 23.0 mph 26.5 mph N/A   Clear
7:15 PM 41.0 °F 31.9 °F 23.0 °F 49% 29.95 in 10.0 mi West 19.6 mph - N/A   Clear
7:35 PM 41.0 °F 32.8 °F 23.0 °F 49% 29.95 in 10.0 mi WNW 16.1 mph - N/A   Clear
7:55 PM 41.0 °F 32.5 °F 23.0 °F 49% 29.95 in 10.0 mi WNW 17.3 mph 23.0 mph N/A   Clear
8:15 PM 41.0 °F 33.9 °F 23.0 °F 49% 29.96 in 10.0 mi NW 12.7 mph 18.4 mph N/A   Clear
8:35 PM 41.0 °F 34.7 °F 23.0 °F 49% 29.97 in 10.0 mi WNW 10.4 mph 16.1 mph N/A   Clear
8:55 PM 41.0 °F 35.2 °F 23.0 °F 49% 29.98 in 10.0 mi NW 9.2 mph - N/A   Clear
9:15 PM 41.0 °F - 23.0 °F 49% 29.98 in 10.0 mi Calm Calm - N/A   Partly Cloudy
9:35 PM 41.0 °F 36.4 °F 23.0 °F 49% 29.99 in 10.0 mi ENE 6.9 mph - N/A   Partly Cloudy
9:55 PM 39.2 °F 33.0 °F 23.0 °F 52% 30.01 in 10.0 mi ENE 9.2 mph - N/A   Unknown
10:15 PM 39.2 °F 35.0 °F 23.0 °F 52% 30.01 in 10.0 mi ENE 5.8 mph - N/A   Overcast
10:35 PM 39.2 °F 37.0 °F 21.2 °F 49% 30.02 in 10.0 mi NE 3.5 mph - N/A   Overcast
10:55 PM 37.4 °F - 21.2 °F 52% 30.03 in 10.0 mi Calm Calm - N/A   Overcast
11:15 PM 37.4 °F - 21.2 °F 52% 30.04 in 10.0 mi Calm Calm - N/A   Partly Cloudy
11:35 PM 37.4 °F 33.8 °F 21.2 °F 52% 30.04 in 10.0 mi North 4.6 mph - N/A   Clear
11:55 PM 37.4 °F 32.8 °F 19.4 °F 48% 30.04 in 10.0 mi North 5.8 mph - N/A   Clear